Погода в Ибадане

Нигерия     7°25′25″N   3°56′05″E
темп.,
°C
ветер,
м/с
пор.,
м/с
влажн.,
%
обл.,
%
осадки,
мм/ч
давл.,
гПа
погр.,
м
23 апреля, пт
пт2301:00+24ю2692100 0.6 1010221
04:00+24ююз2594100 0.0 1009167
07:00+24юз149597 0.0 1010158
10:00+30ююз3464100 0.0 10111069
13:00+35ю234496 0.0 10091799
16:00+36ю3338100 0.0 10062403
19:00+26ююв51182100 1.6 1007518
22:00+25ю2592100 2.9 1012136
24 апреля, сб
сб2401:00+23зюз2695100 8.1 1010134
04:00+24юз2894100 0.0 1008369
07:00+24ю179697 0.0 1009343
10:00+29ююз3572100 0.1 10111011
13:00+32ююз3455100 0.1 10091618
16:00+33ююз2350100 0.2 10071699
19:00+27ю387733 0.6 1008305
22:00+25ю298834 0.0 1010360
25 апреля, вс
вс2501:00+23ююв2797100 0.3 1010231
04:00+23юз1197100 0.0 101025
07:00+24сз2494100 2.1 1012115
10:00+26зюз3783100 0.1 1011445
13:00+30ююз4558100 0.1 1009915
16:00+31ю245499 0.0 10071060
19:00+27ююв377468 0.0 1008287
22:00+24ю28898 0.2 1010327
26 апреля, пн
пн2601:00+23ююз129615 0.2 101068
04:00+23ююз149815 0.0 1009131
07:00+24юз159666 0.0 1011215
10:00+30юз346312 0.0 10121083
13:00+35ююз23435 0.0 10091715
16:00+37ююз223679 0.0 10052599
19:00+29ю49665 0.1 1005734
22:00+24ю159653 3.8 1010160
27 апреля, вт
вт2701:00+24вюв1196100 4.2 101051
04:00+24юз1192100 4.0 100823
07:00+24зсз51091100 4.0 1010432
10:00+24ю3680100 0.0 1011326
13:00+28ю3565100 0.0 1009559
16:00+29ю3563100 0.0 1007753
19:00+26ю258288 0.0 1007135
22:00+24ю2693100 0.0 1009199